Time,TemperatureF,DewpointF,PressureIn,WindDirection,WindDirectionDegrees,WindSpeedMPH,WindSpeedGustMPH,Humidity,HourlyPrecipIn,Conditions,Clouds,dailyrainin,SolarRadiationWatts/m^2,SoftwareType,DateUTC
2013-03-10 00:02:00,51.0,30.0,-100.00,East,81,1.0,4.0,44,0.00,,,0.00,0.000000,,2013-03-10 05:02:00,
2013-03-10 00:22:00,51.0,30.0,-100.00,East,81,1.0,4.0,44,0.00,,,0.00,0.000000,,2013-03-10 05:22:00,
2013-03-10 00:32:00,51.0,30.0,-100.00,East,81,1.0,4.0,44,0.00,,,0.00,0.000000,,2013-03-10 05:32:00,
2013-03-10 00:42:00,51.0,30.0,-100.00,East,81,1.0,4.0,44,0.00,,,0.00,0.000000,,2013-03-10 05:42:00,
2013-03-10 00:52:00,51.0,30.0,-100.00,East,81,1.0,4.0,44,0.00,,,0.00,0.000000,,2013-03-10 05:52:00,
2013-03-10 01:02:00,50.0,29.0,-100.00,ENE,57,2.0,4.0,45,0.00,,,0.00,0.000000,,2013-03-10 06:02:00,
2013-03-10 01:32:00,50.0,29.0,-100.00,ENE,57,2.0,4.0,45,0.00,,,0.00,0.000000,,2013-03-10 06:32:00,
2013-03-10 01:42:00,50.0,29.0,-100.00,ENE,57,2.0,4.0,45,0.00,,,0.00,0.000000,,2013-03-10 06:42:00,
2013-03-10 01:52:00,50.0,29.0,-100.00,ENE,57,2.0,4.0,45,0.00,,,0.00,0.000000,,2013-03-10 06:52:00,
2013-03-10 03:32:00,50.0,30.0,-100.00,ENE,61,2.0,5.0,46,0.00,,,0.00,0.000000,,2013-03-10 07:32:00,
2013-03-10 03:42:00,50.0,30.0,-100.00,ENE,61,2.0,5.0,46,0.00,,,0.00,0.000000,,2013-03-10 07:42:00,
2013-03-10 03:52:00,50.0,30.0,-100.00,ENE,61,2.0,5.0,46,0.00,,,0.00,0.000000,,2013-03-10 07:52:00,
2013-03-10 04:01:00,50.0,30.0,-100.00,ENE,61,2.0,5.0,46,0.00,,,0.00,0.000000,,2013-03-10 08:01:00,
2013-03-10 04:02:00,49.0,30.0,-100.00,ENE,71,2.0,5.0,47,0.00,,,0.00,0.000000,,2013-03-10 08:02:00,
2013-03-10 04:32:00,49.0,30.0,-100.00,ENE,71,2.0,5.0,47,0.00,,,0.00,0.000000,,2013-03-10 08:32:00,
2013-03-10 04:42:00,49.0,30.0,-100.00,ENE,71,2.0,5.0,47,0.00,,,0.00,0.000000,,2013-03-10 08:42:00,
2013-03-10 04:52:00,49.0,30.0,-100.00,ENE,71,2.0,5.0,47,0.00,,,0.00,0.000000,,2013-03-10 08:52:00,
2013-03-10 05:32:00,48.0,29.0,-100.00,East,99,2.0,7.0,48,0.00,,,0.00,0.000000,,2013-03-10 09:32:00,
2013-03-10 05:42:00,48.0,29.0,-100.00,East,99,2.0,7.0,48,0.00,,,0.00,0.000000,,2013-03-10 09:42:00,
2013-03-10 05:52:00,48.0,29.0,-100.00,East,99,2.0,7.0,48,0.00,,,0.00,0.000000,,2013-03-10 09:52:00,
2013-03-10 06:01:00,48.0,29.0,-100.00,East,99,2.0,7.0,48,0.00,,,0.00,0.000000,,2013-03-10 10:01:00,
2013-03-10 06:32:00,48.0,29.0,-100.00,South,183,2.0,4.0,48,0.00,,,0.00,0.000000,,2013-03-10 10:32:00,
2013-03-10 06:42:00,48.0,29.0,-100.00,South,183,2.0,4.0,48,0.00,,,0.00,0.000000,,2013-03-10 10:42:00,
2013-03-10 06:52:00,48.0,29.0,-100.00,South,183,2.0,4.0,48,0.00,,,0.00,0.000000,,2013-03-10 10:52:00,
2013-03-10 07:01:00,48.0,29.0,-100.00,South,183,2.0,4.0,48,0.00,,,0.00,0.000000,,2013-03-10 11:01:00,
2013-03-10 10:32:00,54.0,33.0,-100.00,SSE,155,3.0,7.0,44,-99.99,,,0.00,134.000000,,2013-03-10 14:32:00,
2013-03-10 10:42:00,54.0,33.0,-100.00,SSE,155,3.0,7.0,44,-99.99,,,0.00,134.000000,,2013-03-10 14:42:00,
2013-03-10 10:52:00,54.0,33.0,-100.00,SSE,155,3.0,7.0,44,-99.99,,,0.00,134.000000,,2013-03-10 14:52:00,
2013-03-10 11:01:00,54.0,33.0,-100.00,SSE,155,3.0,7.0,44,-99.99,,,0.00,134.000000,,2013-03-10 15:01:00,
2013-03-10 11:02:00,57.0,33.0,-100.00,SSE,147,4.0,10.0,40,0.00,,,0.00,206.000000,,2013-03-10 15:02:00,
2013-03-10 11:32:00,57.0,33.0,-100.00,SSE,147,4.0,10.0,40,0.00,,,0.00,206.000000,,2013-03-10 15:32:00,
2013-03-10 11:42:00,57.0,33.0,-100.00,SSE,147,4.0,10.0,40,0.00,,,0.00,206.000000,,2013-03-10 15:42:00,
2013-03-10 11:52:00,57.0,33.0,-100.00,SSE,147,4.0,10.0,40,0.00,,,0.00,206.000000,,2013-03-10 15:52:00,
2013-03-10 12:22:00,63.0,34.0,-100.00,SSE,164,5.0,6.0,34,0.00,,,0.00,643.000000,,2013-03-10 16:22:00,
2013-03-10 12:32:00,63.0,34.0,-100.00,SSE,164,5.0,6.0,34,0.00,,,0.00,643.000000,,2013-03-10 16:32:00,
2013-03-10 12:42:00,63.0,34.0,-100.00,SSE,164,5.0,6.0,34,0.00,,,0.00,643.000000,,2013-03-10 16:42:00,
2013-03-10 12:52:00,63.0,34.0,-100.00,SSE,164,5.0,6.0,34,0.00,,,0.00,643.000000,,2013-03-10 16:52:00,
2013-03-10 13:01:00,63.0,34.0,-100.00,SSE,164,5.0,6.0,34,0.00,,,0.00,643.000000,,2013-03-10 17:01:00,
2013-03-10 15:02:00,67.0,30.0,-100.00,SSE,167,4.0,9.0,25,-99.99,,,0.00,595.000000,,2013-03-10 19:02:00,
2013-03-10 15:32:00,67.0,30.0,-100.00,SSE,167,4.0,9.0,25,-99.99,,,0.00,595.000000,,2013-03-10 19:32:00,
2013-03-10 15:42:00,67.0,30.0,-100.00,SSE,167,4.0,9.0,25,-99.99,,,0.00,595.000000,,2013-03-10 19:42:00,
2013-03-10 15:53:00,67.0,30.0,-100.00,SSE,167,4.0,9.0,25,-99.99,,,0.00,595.000000,,2013-03-10 19:53:00,
2013-03-10 16:02:00,67.0,34.0,-100.00,SSE,152,3.0,8.0,29,0.00,,,0.00,546.000000,,2013-03-10 20:02:00,
2013-03-10 16:22:00,67.0,34.0,-100.00,SSE,152,3.0,8.0,29,0.00,,,0.00,546.000000,,2013-03-10 20:22:00,
2013-03-10 16:33:00,67.0,34.0,-100.00,SSE,152,3.0,8.0,29,0.00,,,0.00,546.000000,,2013-03-10 20:33:00,
2013-03-10 16:43:00,67.0,34.0,-100.00,SSE,152,3.0,8.0,29,0.00,,,0.00,546.000000,,2013-03-10 20:43:00,
2013-03-10 16:53:00,67.0,34.0,-100.00,SSE,152,3.0,8.0,29,0.00,,,0.00,546.000000,,2013-03-10 20:53:00,
2013-03-10 17:02:00,67.0,35.0,-100.00,SSE,166,3.0,9.0,30,0.00,,,0.00,356.000000,,2013-03-10 21:02:00,
2013-03-10 17:33:00,67.0,35.0,-100.00,SSE,166,3.0,9.0,30,0.00,,,0.00,356.000000,,2013-03-10 21:33:00,
2013-03-10 17:43:00,67.0,35.0,-100.00,SSE,166,3.0,9.0,30,0.00,,,0.00,356.000000,,2013-03-10 21:43:00,
2013-03-10 17:53:00,67.0,35.0,-100.00,SSE,166,3.0,9.0,30,0.00,,,0.00,356.000000,,2013-03-10 21:53:00,
2013-03-10 18:02:00,65.0,30.0,-100.00,South,172,4.0,7.0,27,0.00,,,0.00,175.000000,,2013-03-10 22:02:00,
2013-03-10 18:33:00,65.0,30.0,-100.00,South,172,4.0,7.0,27,0.00,,,0.00,175.000000,,2013-03-10 22:33:00,
2013-03-10 18:43:00,65.0,30.0,-100.00,South,172,4.0,7.0,27,0.00,,,0.00,175.000000,,2013-03-10 22:43:00,
2013-03-10 18:53:00,65.0,30.0,-100.00,South,172,4.0,7.0,27,0.00,,,0.00,175.000000,,2013-03-10 22:53:00,
2013-03-10 19:02:00,64.0,33.0,-100.00,SSE,167,3.0,7.0,31,0.00,,,0.00,85.000000,,2013-03-10 23:02:00,
2013-03-10 19:33:00,64.0,33.0,-100.00,SSE,167,3.0,7.0,31,0.00,,,0.00,85.000000,,2013-03-10 23:33:00,
2013-03-10 19:43:00,64.0,33.0,-100.00,SSE,167,3.0,7.0,31,0.00,,,0.00,85.000000,,2013-03-10 23:43:00,
2013-03-10 19:53:00,64.0,33.0,-100.00,SSE,167,3.0,7.0,31,0.00,,,0.00,85.000000,,2013-03-10 23:53:00,
2013-03-10 20:02:00,60.0,34.0,-100.00,SSE,156,2.0,5.0,38,0.00,,,0.00,25.000000,,2013-03-11 00:02:00,
2013-03-10 20:33:00,60.0,34.0,-100.00,SSE,156,2.0,5.0,38,0.00,,,0.00,25.000000,,2013-03-11 00:33:00,
2013-03-10 20:43:00,60.0,34.0,-100.00,SSE,156,2.0,5.0,38,0.00,,,0.00,25.000000,,2013-03-11 00:43:00,
2013-03-10 20:53:00,60.0,34.0,-100.00,SSE,156,2.0,5.0,38,0.00,,,0.00,25.000000,,2013-03-11 00:53:00,
2013-03-10 21:02:00,58.0,36.0,-100.00,ESE,106,3.0,6.0,43,0.00,,,0.00,0.000000,,2013-03-11 01:02:00,
2013-03-10 21:33:00,58.0,36.0,-100.00,ESE,106,3.0,6.0,43,0.00,,,0.00,0.000000,,2013-03-11 01:33:00,
2013-03-10 21:43:00,58.0,36.0,-100.00,ESE,106,3.0,6.0,43,0.00,,,0.00,0.000000,,2013-03-11 01:43:00,
2013-03-10 21:53:00,58.0,36.0,-100.00,ESE,106,3.0,6.0,43,0.00,,,0.00,0.000000,,2013-03-11 01:53:00,
2013-03-10 22:02:00,55.0,36.0,-100.00,SE,144,2.0,6.0,49,0.00,,,0.00,0.000000,,2013-03-11 02:02:00,
2013-03-10 22:32:00,55.0,36.0,-100.00,SE,144,2.0,6.0,49,0.00,,,0.00,0.000000,,2013-03-11 02:32:00,
2013-03-10 22:42:00,55.0,36.0,-100.00,SE,144,2.0,6.0,49,0.00,,,0.00,0.000000,,2013-03-11 02:42:00,
2013-03-10 22:53:00,55.0,36.0,-100.00,SE,144,2.0,6.0,49,0.00,,,0.00,0.000000,,2013-03-11 02:53:00,
2013-03-10 23:02:00,55.0,39.0,-100.00,SSE,159,2.0,8.0,54,0.00,,,0.00,0.000000,,2013-03-11 03:02:00,
2013-03-10 23:32:00,55.0,39.0,-100.00,SSE,159,2.0,8.0,54,0.00,,,0.00,0.000000,,2013-03-11 03:32:00,
2013-03-10 23:43:00,55.0,39.0,-100.00,SSE,159,2.0,8.0,54,0.00,,,0.00,0.000000,,2013-03-11 03:43:00,
2013-03-10 23:53:00,55.0,39.0,-100.00,SSE,159,2.0,8.0,54,0.00,,,0.00,0.000000,,2013-03-11 03:53:00,